Weather History for Marshalltown, IA

Change the Weather History Date:

Monday, June 2, 2014

  Actual Average Record
Temperature  
Mean Temperature 74 °F 66 °F  
Max Temperature 85 °F 77 °F 87 °F (2006)
Min Temperature 63 °F 55 °F 46 °F (2001)
Degree Days  
Heating Degree Days 0 2  
Month to date heating degree days 0 4  
Since 1 June heating degree days 0 4  
Since 1 July heating degree days 7908 6988  
Cooling Degree Days 9 3  
Month to date cooling degree days 21 6  
Year to date cooling degree days 100 56  
Since 1 June cooling degree days 21 6  
Growing Degree Days 24 (Base 50)    
Moisture  
Dew Point 62 °F    
Average Humidity 69    
Maximum Humidity 100    
Minimum Humidity 37    
Precipitation  
Precipitation 0.05 in 0.18 in 0.43 in (2003)
Month to date precipitation 0.06 0.36  
Sea Level Pressure  
Sea Level Pressure 29.80 in    
Wind  
Wind Speed 13 mph (WSW)    
Max Wind Speed 24 mph    
Max Gust Speed 30 mph    
Visibility 10 miles    
Events Rain    
T = Trace of Precipitation, MM = Missing Value Source: NWS Daily Summary

Daily Weather History Graph

Daily Weather History Graph

Search for Another Location

Airport:

Trip Planner

Search our weather history database for the weather conditions in past years. The results will help you decide how hot, cold, wet, or windy it might be!

Date:

Astronomy

Jun. 02, 2014 Rise Set
Actual Time 5:37 AM CDT 8:41 PM CDT
Civil Twilight 5:04 AM CDT 9:15 PM CDT
Nautical Twilight 4:20 AM CDT 9:59 PM CDT
Astronomical Twilight 3:29 AM CDT 10:50 PM CDT
Moon 10:08 AM CDT (6/2) No Moon Set
Length of Visible Light 16h 11m
Length of Day
15h 04m
Waxing Crescent, 22% of the Moon is Illuminated
Jun 2
Waxing Crescent
Jun 5
First Quarter
Jun 12
Full
Jun 19
Last Quarter
Jun 27
New

Hourly Weather History & Observations

Time (CDT) Temp. Heat Index Dew Point Humidity Pressure Visibility Wind Dir Wind Speed Gust Speed Precip Events Conditions
12:00 AM 66.0 °F - 64.9 °F 96% 29.80 in 10.0 mi West 8.1 mph - N/A   Overcast
12:24 AM 66.0 °F - 64.0 °F 93% 29.78 in 10.0 mi South 5.8 mph - N/A   Mostly Cloudy
12:44 AM 66.0 °F - 64.0 °F 93% 29.78 in 10.0 mi SW 8.1 mph - N/A   Overcast
12:53 AM 66.0 °F - 64.0 °F 93% 29.76 in 10.0 mi WSW 5.8 mph - N/A   Overcast
1:12 AM 66.0 °F - 64.0 °F 93% 29.77 in 10.0 mi West 5.8 mph - N/A   Mostly Cloudy
1:53 AM 64.9 °F - 64.0 °F 97% 29.74 in 10.0 mi Calm Calm - N/A   Partly Cloudy
2:53 AM 66.0 °F - 64.0 °F 93% 29.74 in 10.0 mi WSW 5.8 mph - N/A   Overcast
3:53 AM 66.0 °F - 64.0 °F 93% 29.75 in 7.0 mi South 3.5 mph - 0.03 in Rain Light Rain
4:53 AM 64.9 °F - 64.0 °F 97% 29.75 in 10.0 mi West 4.6 mph - 0.02 in   Partly Cloudy
5:20 AM 64.9 °F - 64.0 °F 97% 29.79 in 10.0 mi WSW 6.9 mph - N/A   Mostly Cloudy
5:30 AM 64.9 °F - 64.0 °F 97% 29.79 in 10.0 mi SW 6.9 mph - N/A   Mostly Cloudy
5:45 AM 64.9 °F - 64.0 °F 97% 29.79 in 10.0 mi WSW 9.2 mph - N/A   Mostly Cloudy
5:53 AM 64.9 °F - 64.0 °F 97% 29.78 in 10.0 mi SW 9.2 mph - N/A   Mostly Cloudy
6:05 AM 64.9 °F - 63.0 °F 93% 29.80 in 10.0 mi WSW 10.4 mph - N/A   Scattered Clouds
6:53 AM 64.9 °F - 63.0 °F 93% 29.78 in 10.0 mi WSW 10.4 mph - N/A   Clear
7:53 AM 66.9 °F - 63.0 °F 87% 29.79 in 10.0 mi WSW 16.1 mph - N/A   Partly Cloudy
8:11 AM 66.9 °F - 63.0 °F 87% 29.82 in 10.0 mi WSW 21.9 mph 27.6 mph N/A   Mostly Cloudy
8:53 AM 66.9 °F - 62.1 °F 84% 29.81 in 10.0 mi WSW 20.7 mph 26.5 mph N/A   Overcast
9:48 AM 69.8 °F - 62.6 °F 78% 29.84 in 10.0 mi West 18.4 mph 25.3 mph N/A   Overcast
9:53 AM 70.0 °F - 64.0 °F 81% 29.82 in 10.0 mi West 19.6 mph 26.5 mph N/A   Mostly Cloudy
10:53 AM 73.9 °F - 64.0 °F 71% 29.83 in 10.0 mi West 17.3 mph 25.3 mph N/A   Mostly Cloudy
11:15 AM 73.9 °F - 64.0 °F 71% 29.85 in 10.0 mi WSW 17.3 mph 24.2 mph N/A   Scattered Clouds
1:53 PM 82.0 °F 83.0 °F 62.1 °F 51% 29.82 in 10.0 mi WSW 21.9 mph 27.6 mph N/A   Mostly Cloudy
2:53 PM 82.0 °F 82.1 °F 59.0 °F 45% 29.81 in 10.0 mi West 15.0 mph 25.3 mph N/A   Mostly Cloudy
4:53 PM 84.9 °F 84.2 °F 57.9 °F 40% 29.81 in 10.0 mi West 19.6 mph 27.6 mph N/A   Partly Cloudy
5:53 PM 82.9 °F 82.0 °F 55.0 °F 38% 29.81 in 10.0 mi West 20.7 mph 27.6 mph N/A   Partly Cloudy
6:53 PM 82.0 °F 81.2 °F 53.1 °F 37% 29.81 in 10.0 mi West 16.1 mph 24.2 mph N/A   Partly Cloudy
8:53 PM 75.0 °F - 54.0 °F 48% 29.84 in 10.0 mi West 9.2 mph - N/A   Clear
9:53 PM 72.0 °F - 54.0 °F 53% 29.87 in 10.0 mi West 10.4 mph - N/A   Clear
10:53 PM 69.1 °F - 55.0 °F 61% 29.89 in 10.0 mi West 6.9 mph - N/A   Clear
11:53 PM 64.0 °F - 55.0 °F 73% 29.90 in 10.0 mi West 4.6 mph - N/A   Clear